Location: ??
(34.9170°N, 135.5016°E)
Time: 18:10:31
(UTC+00:00)

SJ-12 - Visible Passes

Search period start: 06 March 2021 00:00
Search period end: 16 March 2021 00:00
Orbit: 568 x 585 km, 97.7° (Epoch: 05 March)

Date Brightness Start Highest point End Pass type
(mag) Time Alt. Az. Time Alt. Az. Time Alt. Az.
06 Mar 4.1 20:19:12 10° N 20:23:07 48° WNW 20:27:01 10° SSW visible
07 Mar 7.1 18:50:14 10° ENE 18:51:30 11° E 18:52:46 10° ESE visible
07 Mar 4.2 20:23:05 10° N 20:26:56 43° WNW 20:30:46 10° SW visible
08 Mar 7.0 18:53:34 10° ENE 18:55:22 13° E 18:57:09 10° ESE visible
08 Mar 4.4 20:26:58 10° N 20:30:45 38° WNW 20:34:31 10° SW visible
09 Mar 6.9 18:57:03 10° ENE 18:59:14 14° E 19:01:25 10° SE visible
09 Mar 4.5 20:30:53 10° N 20:34:35 35° WNW 20:38:15 10° SW visible
10 Mar 6.8 19:00:36 10° NE 19:03:06 16° E 19:05:34 10° SE visible
10 Mar 4.7 20:34:47 10° N 20:38:23 31° WNW 20:41:58 10° SW visible
11 Mar 6.7 19:04:12 10° NE 19:06:57 18° E 19:09:42 10° SE visible
11 Mar 4.8 20:38:43 10° NNW 20:42:12 28° WNW 20:45:40 10° SW visible
12 Mar 6.5 19:07:51 10° NE 19:10:48 19° E 19:13:46 10° SE visible
12 Mar 4.9 20:42:39 10° NNW 20:46:00 25° WNW 20:49:21 10° SW visible
13 Mar 6.4 19:11:31 10° NE 19:14:40 22° E 19:17:49 10° SSE visible
13 Mar 5.1 20:46:36 10° NNW 20:49:49 23° WNW 20:53:01 10° WSW visible
14 Mar 6.2 19:15:12 10° NE 19:18:32 24° E 19:21:50 10° SSE visible
15 Mar 6.0 19:18:55 10° NE 19:22:22 27° E 19:25:50 10° SSE visible
